Time,TemperatureF,DewpointF,PressureIn,WindDirection,WindDirectionDegrees,WindSpeedMPH,WindSpeedGustMPH,Humidity,HourlyPrecipIn,Conditions,Clouds,dailyrainin,SoftwareType,DateUTC
2013-09-12 00:00:00,59.3,53.8,29.90,SW,234,0.0,0.0,82,0.00,,,0.00,WeatherTracker,2013-09-12 07:00:00,
2013-09-12 00:05:00,59.1,53.9,29.90,SW,234,0.0,0.0,83,0.00,,,0.00,WeatherTracker,2013-09-12 07:05:00,
2013-09-12 00:10:00,59.0,53.8,29.90,SW,234,0.0,0.0,83,0.00,,,0.00,WeatherTracker,2013-09-12 07:10:00,
2013-09-12 00:15:00,58.8,54.0,29.90,SW,234,0.0,0.0,84,0.00,,,0.00,WeatherTracker,2013-09-12 07:15:00,
2013-09-12 00:20:00,58.7,53.9,29.90,SW,234,0.0,0.0,84,0.00,,,0.00,WeatherTracker,2013-09-12 07:20:00,
2013-09-12 00:25:00,58.6,53.8,29.90,SW,234,0.0,0.0,84,0.00,,,0.00,WeatherTracker,2013-09-12 07:25:00,
2013-09-12 00:35:00,58.4,53.9,29.90,SW,234,0.0,0.0,85,0.00,,,0.00,WeatherTracker,2013-09-12 07:35:00,
2013-09-12 00:40:00,58.3,53.8,29.90,SW,234,0.0,0.0,85,0.00,,,0.00,WeatherTracker,2013-09-12 07:40:00,
2013-09-12 00:45:00,58.2,53.7,29.90,SW,234,0.0,0.0,85,0.00,,,0.00,WeatherTracker,2013-09-12 07:45:00,
2013-09-12 00:50:00,58.1,53.9,29.90,SW,234,0.0,0.0,86,0.00,,,0.00,WeatherTracker,2013-09-12 07:50:00,
2013-09-12 01:00:00,58.0,53.8,29.90,SW,234,0.0,0.0,86,0.00,,,0.00,WeatherTracker,2013-09-12 08:00:00,
2013-09-12 01:05:00,57.9,53.7,29.90,SW,234,0.0,0.0,86,0.00,,,0.00,WeatherTracker,2013-09-12 08:05:00,
2013-09-12 01:10:00,57.8,54.0,29.91,SW,226,0.0,0.0,87,0.00,,,0.00,WeatherTracker,2013-09-12 08:10:00,
2013-09-12 01:15:00,57.8,54.0,29.91,SW,226,0.0,0.0,87,0.00,,,0.00,WeatherTracker,2013-09-12 08:15:00,
2013-09-12 01:20:00,57.7,53.9,29.91,SW,226,0.0,0.0,87,0.00,,,0.00,WeatherTracker,2013-09-12 08:20:00,
2013-09-12 01:25:00,57.6,53.8,29.91,SW,226,0.0,0.0,87,0.00,,,0.00,WeatherTracker,2013-09-12 08:25:00,
2013-09-12 01:30:00,57.5,53.7,29.91,SW,226,0.0,0.0,87,0.00,,,0.00,WeatherTracker,2013-09-12 08:30:00,
2013-09-12 01:35:00,57.3,53.5,29.91,SW,226,0.0,0.0,87,0.00,,,0.00,WeatherTracker,2013-09-12 08:35:00,
2013-09-12 01:40:00,57.3,53.5,29.91,SW,226,0.0,0.0,87,0.00,,,0.00,WeatherTracker,2013-09-12 08:40:00,
2013-09-12 01:45:00,57.1,53.3,29.91,SW,226,0.0,0.0,87,0.00,,,0.00,WeatherTracker,2013-09-12 08:45:00,
2013-09-12 01:50:00,57.1,53.3,29.91,SW,226,0.0,0.0,87,0.00,,,0.00,WeatherTracker,2013-09-12 08:50:00,
2013-09-12 01:55:00,57.0,53.2,29.91,SW,226,0.0,0.0,87,0.00,,,0.00,WeatherTracker,2013-09-12 08:55:00,
2013-09-12 02:00:00,56.9,53.4,29.91,SW,226,0.0,0.0,88,0.00,,,0.00,WeatherTracker,2013-09-12 09:00:00,
2013-09-12 02:05:00,56.8,53.3,29.91,SW,226,0.0,0.0,88,0.00,,,0.00,WeatherTracker,2013-09-12 09:05:00,
2013-09-12 02:10:00,56.7,53.2,29.91,SW,226,0.0,0.0,88,0.00,,,0.00,WeatherTracker,2013-09-12 09:10:00,
2013-09-12 02:15:00,56.6,53.4,29.91,SW,226,0.0,0.0,89,0.00,,,0.00,WeatherTracker,2013-09-12 09:15:00,
2013-09-12 02:20:00,56.6,53.4,29.91,SW,226,0.0,0.0,89,0.00,,,0.00,WeatherTracker,2013-09-12 09:20:00,
2013-09-12 02:25:00,56.6,53.4,29.91,SW,226,0.0,0.0,89,0.00,,,0.00,WeatherTracker,2013-09-12 09:25:00,
2013-09-12 02:30:00,56.7,53.8,29.91,SW,226,0.0,0.0,90,0.00,,,0.00,WeatherTracker,2013-09-12 09:30:00,
2013-09-12 02:35:00,56.7,53.8,29.92,SW,226,0.0,0.0,90,0.00,,,0.00,WeatherTracker,2013-09-12 09:35:00,
2013-09-12 02:40:00,56.7,53.5,29.92,SW,226,0.0,0.0,89,0.00,,,0.00,WeatherTracker,2013-09-12 09:40:00,
2013-09-12 02:45:00,56.6,53.4,29.91,SW,226,0.0,0.0,89,0.00,,,0.00,WeatherTracker,2013-09-12 09:45:00,
2013-09-12 02:50:00,56.5,53.6,29.91,SW,226,0.0,0.0,90,0.00,,,0.00,WeatherTracker,2013-09-12 09:50:00,
2013-09-12 02:55:00,56.5,53.6,29.91,SW,226,0.0,0.0,90,0.00,,,0.00,WeatherTracker,2013-09-12 09:55:00,
2013-09-12 03:00:00,56.4,53.5,29.91,SW,226,0.0,0.0,90,0.00,,,0.00,WeatherTracker,2013-09-12 10:00:00,
2013-09-12 03:05:00,56.4,53.5,29.91,SW,226,0.0,0.0,90,0.00,,,0.00,WeatherTracker,2013-09-12 10:05:00,
2013-09-12 03:10:00,56.3,53.4,29.91,SW,226,0.0,0.0,90,0.00,,,0.00,WeatherTracker,2013-09-12 10:10:00,
2013-09-12 03:15:00,56.3,53.4,29.91,SW,226,0.0,0.0,90,0.00,,,0.00,WeatherTracker,2013-09-12 10:15:00,
2013-09-12 03:20:00,56.3,53.4,29.91,SW,226,0.0,0.0,90,0.00,,,0.00,WeatherTracker,2013-09-12 10:20:00,
2013-09-12 03:25:00,56.2,53.3,29.91,SW,226,0.0,0.0,90,0.00,,,0.00,WeatherTracker,2013-09-12 10:25:00,
2013-09-12 03:30:00,56.2,53.3,29.91,SW,226,0.0,0.0,90,0.00,,,0.00,WeatherTracker,2013-09-12 10:30:00,
2013-09-12 03:35:00,56.2,53.6,29.91,SW,226,0.0,0.0,91,0.00,,,0.00,WeatherTracker,2013-09-12 10:35:00,
2013-09-12 03:40:00,56.1,53.5,29.92,SW,226,0.0,0.0,91,0.00,,,0.00,WeatherTracker,2013-09-12 10:40:00,
2013-09-12 03:45:00,56.1,53.5,29.92,SW,226,0.0,0.0,91,0.00,,,0.00,WeatherTracker,2013-09-12 10:45:00,
2013-09-12 03:50:00,56.0,53.4,29.92,SW,226,0.0,0.0,91,0.00,,,0.00,WeatherTracker,2013-09-12 10:50:00,
2013-09-12 03:55:00,55.9,53.3,29.92,SW,226,0.0,0.0,91,0.00,,,0.00,WeatherTracker,2013-09-12 10:55:00,
2013-09-12 04:00:00,55.8,53.2,29.92,SW,226,0.0,0.0,91,0.00,,,0.00,WeatherTracker,2013-09-12 11:00:00,
2013-09-12 04:05:00,55.7,53.1,29.92,SW,226,0.0,0.0,91,0.00,,,0.00,WeatherTracker,2013-09-12 11:05:00,
2013-09-12 04:10:00,55.7,52.8,29.92,SW,226,0.0,0.0,90,0.00,,,0.00,WeatherTracker,2013-09-12 11:10:00,
2013-09-12 04:15:00,55.5,52.6,29.92,SW,226,0.0,0.0,90,0.00,,,0.00,WeatherTracker,2013-09-12 11:15:00,
2013-09-12 04:20:00,55.4,52.5,29.92,SW,226,0.0,0.0,90,0.00,,,0.00,WeatherTracker,2013-09-12 11:20:00,
2013-09-12 04:25:00,55.3,52.4,29.93,SW,226,0.0,0.0,90,0.00,,,0.00,WeatherTracker,2013-09-12 11:25:00,
2013-09-12 04:35:00,55.1,52.5,29.93,SW,226,0.0,0.0,91,0.00,,,0.00,WeatherTracker,2013-09-12 11:35:00,
2013-09-12 04:40:00,55.0,52.4,29.93,SW,226,0.0,0.0,91,0.00,,,0.00,WeatherTracker,2013-09-12 11:40:00,
2013-09-12 04:45:00,55.0,52.4,29.93,SW,226,0.0,0.0,91,0.00,,,0.00,WeatherTracker,2013-09-12 11:45:00,
2013-09-12 04:50:00,54.9,52.3,29.93,SW,226,0.0,0.0,91,0.00,,,0.00,WeatherTracker,2013-09-12 11:50:00,
2013-09-12 04:55:00,54.9,52.3,29.93,SW,226,0.0,0.0,91,0.00,,,0.00,WeatherTracker,2013-09-12 11:55:00,
2013-09-12 05:00:00,54.9,52.3,29.93,SW,226,0.0,0.0,91,0.00,,,0.00,WeatherTracker,2013-09-12 12:00:00,
2013-09-12 05:05:00,54.8,52.2,29.93,SW,226,0.0,0.0,91,0.00,,,0.00,WeatherTracker,2013-09-12 12:05:00,
2013-09-12 05:10:00,54.8,52.2,29.93,SW,226,0.0,0.0,91,0.00,,,0.00,WeatherTracker,2013-09-12 12:10:00,
2013-09-12 05:15:00,54.8,52.5,29.93,SW,226,0.0,0.0,92,0.00,,,0.00,WeatherTracker,2013-09-12 12:15:00,
2013-09-12 05:20:00,54.8,52.2,29.93,SW,226,0.0,0.0,91,0.00,,,0.00,WeatherTracker,2013-09-12 12:20:00,
2013-09-12 05:25:00,54.7,52.1,29.93,SW,226,0.0,0.0,91,0.00,,,0.00,WeatherTracker,2013-09-12 12:25:00,
2013-09-12 05:30:00,54.6,52.3,29.93,SW,226,0.0,0.0,92,0.00,,,0.00,WeatherTracker,2013-09-12 12:30:00,
2013-09-12 05:35:00,54.6,52.3,29.93,SW,226,0.0,0.0,92,0.00,,,0.00,WeatherTracker,2013-09-12 12:35:00,
2013-09-12 05:40:00,54.6,52.3,29.93,SW,226,0.0,0.0,92,0.00,,,0.00,WeatherTracker,2013-09-12 12:40:00,
2013-09-12 05:45:00,54.5,52.2,29.94,SW,226,0.0,0.0,92,0.00,,,0.00,WeatherTracker,2013-09-12 12:45:00,
2013-09-12 05:50:00,54.5,52.2,29.93,SW,226,0.0,0.0,92,0.00,,,0.00,WeatherTracker,2013-09-12 12:50:00,
2013-09-12 05:55:00,54.5,52.2,29.94,SW,226,0.0,0.0,92,0.00,,,0.00,WeatherTracker,2013-09-12 12:55:00,
2013-09-12 06:00:00,54.4,52.1,29.93,SW,226,0.0,0.0,92,0.00,,,0.00,WeatherTracker,2013-09-12 13:00:00,
2013-09-12 06:05:00,54.4,52.1,29.93,SW,226,0.0,0.0,92,0.00,,,0.00,WeatherTracker,2013-09-12 13:05:00,
2013-09-12 06:10:00,54.4,52.1,29.94,SW,226,0.0,0.0,92,0.00,,,0.00,WeatherTracker,2013-09-12 13:10:00,
2013-09-12 06:15:00,54.4,52.1,29.94,SW,226,0.0,0.0,92,0.00,,,0.00,WeatherTracker,2013-09-12 13:15:00,
2013-09-12 06:20:00,54.4,52.1,29.94,SW,226,0.0,0.0,92,0.00,,,0.00,WeatherTracker,2013-09-12 13:20:00,
2013-09-12 06:25:00,54.4,52.1,29.94,SW,226,0.0,0.0,92,0.00,,,0.00,WeatherTracker,2013-09-12 13:25:00,
2013-09-12 06:30:00,54.3,52.3,29.94,SW,226,0.0,0.0,93,0.00,,,0.00,WeatherTracker,2013-09-12 13:30:00,
2013-09-12 06:35:00,54.3,52.3,29.94,SW,226,0.0,0.0,93,0.00,,,0.00,WeatherTracker,2013-09-12 13:35:00,
2013-09-12 06:40:00,54.3,52.3,29.95,SW,226,0.0,0.0,93,0.00,,,0.00,WeatherTracker,2013-09-12 13:40:00,
2013-09-12 06:45:00,54.3,52.3,29.94,SW,226,0.0,0.0,93,0.00,,,0.00,WeatherTracker,2013-09-12 13:45:00,
2013-09-12 06:50:00,54.3,52.3,29.95,SW,226,0.0,0.0,93,0.00,,,0.00,WeatherTracker,2013-09-12 13:50:00,
2013-09-12 06:55:00,54.3,52.3,29.95,SW,226,0.0,0.0,93,0.00,,,0.00,WeatherTracker,2013-09-12 13:55:00,
2013-09-12 07:00:00,54.3,52.3,29.95,SW,226,0.0,0.0,93,0.00,,,0.00,WeatherTracker,2013-09-12 14:00:00,
2013-09-12 07:10:00,54.3,52.3,29.95,SW,226,0.0,0.0,93,0.00,,,0.00,WeatherTracker,2013-09-12 14:10:00,
2013-09-12 07:15:00,54.3,52.3,29.95,SW,226,0.0,0.0,93,0.00,,,0.00,WeatherTracker,2013-09-12 14:15:00,
2013-09-12 07:20:00,54.4,52.4,29.95,SW,226,1.0,0.0,93,0.00,,,0.00,WeatherTracker,2013-09-12 14:20:00,
2013-09-12 07:25:00,54.6,52.6,29.95,SW,226,0.0,0.0,93,0.00,,,0.00,WeatherTracker,2013-09-12 14:25:00,
2013-09-12 07:30:00,54.8,53.1,29.95,SW,221,2.0,0.0,94,0.00,,,0.00,WeatherTracker,2013-09-12 14:30:00,
2013-09-12 07:35:00,55.0,53.0,29.95,SW,218,2.0,0.0,93,0.00,,,0.00,WeatherTracker,2013-09-12 14:35:00,
2013-09-12 07:40:00,55.1,53.1,29.95,SW,218,1.0,0.0,93,0.00,,,0.00,WeatherTracker,2013-09-12 14:40:00,
2013-09-12 07:45:00,55.4,53.4,29.96,SW,218,0.0,0.0,93,0.00,,,0.00,WeatherTracker,2013-09-12 14:45:00,
2013-09-12 07:50:00,55.6,53.6,29.96,SW,218,0.0,0.0,93,0.00,,,0.00,WeatherTracker,2013-09-12 14:50:00,
2013-09-12 07:55:00,55.8,53.8,29.96,SW,218,1.0,0.0,93,0.00,,,0.00,WeatherTracker,2013-09-12 14:55:00,
2013-09-12 08:00:00,56.2,54.2,29.96,SW,218,0.0,0.0,93,0.00,,,0.00,WeatherTracker,2013-09-12 15:00:00,
2013-09-12 08:05:00,56.6,54.3,29.95,SW,218,1.0,0.0,92,0.00,,,0.00,WeatherTracker,2013-09-12 15:05:00,
2013-09-12 08:10:00,57.0,54.7,29.95,SW,218,0.0,0.0,92,0.00,,,0.00,WeatherTracker,2013-09-12 15:10:00,
2013-09-12 08:15:00,57.5,54.9,29.95,SW,218,2.0,0.0,91,0.00,,,0.00,WeatherTracker,2013-09-12 15:15:00,
2013-09-12 08:20:00,58.1,55.2,29.95,SW,215,0.0,0.0,90,0.00,,,0.00,WeatherTracker,2013-09-12 15:20:00,
2013-09-12 08:25:00,58.8,55.6,29.95,SW,215,1.0,0.0,89,0.00,,,0.00,WeatherTracker,2013-09-12 15:25:00,
2013-09-12 08:30:00,59.5,55.9,29.95,SW,215,2.0,0.0,88,0.00,,,0.00,WeatherTracker,2013-09-12 15:30:00,
2013-09-12 08:35:00,60.3,55.8,29.95,SSE,157,1.0,0.0,85,0.00,,,0.00,WeatherTracker,2013-09-12 15:35:00,
2013-09-12 08:40:00,60.9,56.0,29.95,SSE,148,2.0,0.0,84,0.00,,,0.00,WeatherTracker,2013-09-12 15:40:00,
2013-09-12 08:45:00,61.5,56.0,29.95,SE,133,1.0,0.0,82,0.00,,,0.00,WeatherTracker,2013-09-12 15:45:00,
2013-09-12 08:50:00,62.0,56.1,29.95,ESE,120,1.0,0.0,81,0.00,,,0.00,WeatherTracker,2013-09-12 15:50:00,
2013-09-12 08:55:00,62.3,56.0,29.96,ESE,120,2.0,0.0,80,0.00,,,0.00,WeatherTracker,2013-09-12 15:55:00,
2013-09-12 09:00:00,62.8,56.2,29.96,ESE,120,3.0,0.0,79,0.00,,,0.00,WeatherTracker,2013-09-12 16:00:00,
2013-09-12 09:05:00,63.0,56.0,29.96,ESE,120,2.0,0.0,78,0.00,,,0.00,WeatherTracker,2013-09-12 16:05:00,
2013-09-12 09:10:00,63.2,56.2,29.96,ESE,110,3.0,0.0,78,0.00,,,0.00,WeatherTracker,2013-09-12 16:10:00,
2013-09-12 09:15:00,63.1,56.1,29.96,ESE,120,1.0,0.0,78,0.00,,,0.00,WeatherTracker,2013-09-12 16:15:00,
2013-09-12 09:25:00,62.6,55.3,29.96,ESE,111,4.0,0.0,77,0.00,,,0.00,WeatherTracker,2013-09-12 16:25:00,
2013-09-12 09:30:00,62.6,56.0,29.96,ESE,111,3.0,0.0,79,0.00,,,0.00,WeatherTracker,2013-09-12 16:30:00,
2013-09-12 09:35:00,63.0,56.0,29.95,ESE,111,1.0,0.0,78,0.00,,,0.00,WeatherTracker,2013-09-12 16:35:00,
2013-09-12 09:40:00,63.5,56.2,29.95,ESE,110,2.0,0.0,77,0.00,,,0.00,WeatherTracker,2013-09-12 16:40:00,
2013-09-12 09:45:00,63.8,56.4,29.95,ESE,110,1.0,0.0,77,0.00,,,0.00,WeatherTracker,2013-09-12 16:45:00,
2013-09-12 09:50:00,64.3,56.6,29.95,SE,125,3.0,0.0,76,0.00,,,0.00,WeatherTracker,2013-09-12 16:50:00,
2013-09-12 09:55:00,64.6,56.9,29.95,ESE,115,1.0,0.0,76,0.00,,,0.00,WeatherTracker,2013-09-12 16:55:00,
2013-09-12 10:00:00,64.9,57.1,29.95,ESE,110,1.0,0.0,76,0.00,,,0.00,WeatherTracker,2013-09-12 17:00:00,
2013-09-12 10:05:00,65.1,57.0,29.95,SE,125,3.0,0.0,75,0.00,,,0.00,WeatherTracker,2013-09-12 17:05:00,
2013-09-12 10:15:00,65.3,57.2,29.95,SE,125,3.0,0.0,75,0.00,,,0.00,WeatherTracker,2013-09-12 17:15:00,
2013-09-12 10:20:00,65.2,57.1,29.95,ESE,110,5.0,0.0,75,0.00,,,0.00,WeatherTracker,2013-09-12 17:20:00,
2013-09-12 10:25:00,64.8,56.7,29.95,SE,129,2.0,0.0,75,0.00,,,0.00,WeatherTracker,2013-09-12 17:25:00,
2013-09-12 10:30:00,64.4,56.3,29.95,ESE,110,4.0,0.0,75,0.00,,,0.00,WeatherTracker,2013-09-12 17:30:00,
2013-09-12 10:40:00,63.2,56.2,29.95,ESE,115,2.0,0.0,78,0.00,,,0.00,WeatherTracker,2013-09-12 17:40:00,
2013-09-12 10:45:00,63.2,56.6,29.95,ESE,115,2.0,0.0,79,0.00,,,0.00,WeatherTracker,2013-09-12 17:45:00,
2013-09-12 10:55:00,63.1,56.1,29.95,SE,125,6.0,0.0,78,0.00,,,0.00,WeatherTracker,2013-09-12 17:55:00,
2013-09-12 11:00:00,62.3,55.0,29.95,SE,129,5.0,0.0,77,0.00,,,0.00,WeatherTracker,2013-09-12 18:00:00,
2013-09-12 11:05:00,61.6,55.0,29.95,ESE,115,6.0,0.0,79,0.00,,,0.00,WeatherTracker,2013-09-12 18:05:00,
2013-09-12 11:10:00,60.5,54.3,29.95,SE,125,4.0,0.0,80,0.00,,,0.00,WeatherTracker,2013-09-12 18:10:00,
2013-09-12 11:15:00,60.1,54.6,29.95,SE,135,3.0,0.0,82,0.00,,,0.00,WeatherTracker,2013-09-12 18:15:00,
2013-09-12 11:20:00,60.2,54.7,29.94,East,98,4.0,0.0,82,0.00,,,0.00,WeatherTracker,2013-09-12 18:20:00,
2013-09-12 11:25:00,60.2,54.7,29.94,SE,131,3.0,0.0,82,0.00,,,0.00,WeatherTracker,2013-09-12 18:25:00,
2013-09-12 11:30:00,60.4,55.2,29.94,SE,133,1.0,0.0,83,0.00,,,0.00,WeatherTracker,2013-09-12 18:30:00,
2013-09-12 11:35:00,60.8,55.6,29.94,SE,133,3.0,0.0,83,0.00,,,0.00,WeatherTracker,2013-09-12 18:35:00,
2013-09-12 11:40:00,61.0,55.1,29.94,SE,125,1.0,0.0,81,0.00,,,0.00,WeatherTracker,2013-09-12 18:40:00,
2013-09-12 11:50:00,61.2,55.0,29.94,East,92,2.0,0.0,80,0.00,,,0.00,WeatherTracker,2013-09-12 18:50:00,
2013-09-12 11:55:00,61.4,55.5,29.94,ESE,110,1.0,0.0,81,0.00,,,0.00,WeatherTracker,2013-09-12 18:55:00,
2013-09-12 12:00:00,61.8,55.9,29.93,ESE,120,3.0,0.0,81,0.00,,,0.00,WeatherTracker,2013-09-12 19:00:00,
2013-09-12 12:05:00,62.3,55.7,29.93,SE,125,2.0,0.0,79,0.00,,,0.00,WeatherTracker,2013-09-12 19:05:00,
2013-09-12 12:10:00,63.0,56.0,29.93,SE,125,2.0,0.0,78,0.00,,,0.00,WeatherTracker,2013-09-12 19:10:00,
2013-09-12 12:15:00,63.7,56.7,29.93,SE,125,3.0,0.0,78,0.00,,,0.00,WeatherTracker,2013-09-12 19:15:00,
2013-09-12 12:20:00,64.2,56.8,29.93,SSE,151,3.0,0.0,77,0.00,,,0.00,WeatherTracker,2013-09-12 19:20:00,
2013-09-12 12:25:00,64.8,57.4,29.93,SSE,150,1.0,0.0,77,0.00,,,0.00,WeatherTracker,2013-09-12 19:25:00,
2013-09-12 12:30:00,65.5,57.7,29.93,SSE,149,2.0,0.0,76,0.00,,,0.00,WeatherTracker,2013-09-12 19:30:00,
2013-09-12 12:35:00,66.3,57.8,29.93,SE,137,2.0,0.0,74,0.00,,,0.00,WeatherTracker,2013-09-12 19:35:00,
2013-09-12 12:40:00,67.2,59.0,29.93,East,101,3.0,0.0,75,0.00,,,0.00,WeatherTracker,2013-09-12 19:40:00,
2013-09-12 12:45:00,68.3,59.7,29.93,ESE,120,2.0,0.0,74,0.00,,,0.00,WeatherTracker,2013-09-12 19:45:00,
2013-09-12 12:50:00,68.9,58.3,29.93,ESE,115,4.0,0.0,69,0.00,,,0.00,WeatherTracker,2013-09-12 19:50:00,
2013-09-12 12:55:00,69.1,58.5,29.93,SE,131,2.0,0.0,69,0.00,,,0.00,WeatherTracker,2013-09-12 19:55:00,
2013-09-12 13:00:00,69.2,58.6,29.92,ESE,120,3.0,0.0,69,0.00,,,0.00,WeatherTracker,2013-09-12 20:00:00,
2013-09-12 13:05:00,69.6,59.0,29.92,SE,140,3.0,0.0,69,0.00,,,0.00,WeatherTracker,2013-09-12 20:05:00,
2013-09-12 13:10:00,69.9,59.3,29.93,ESE,115,3.0,0.0,69,0.00,,,0.00,WeatherTracker,2013-09-12 20:10:00,
2013-09-12 13:15:00,70.3,59.2,29.92,ESE,110,2.0,0.0,68,0.00,,,0.00,WeatherTracker,2013-09-12 20:15:00,
2013-09-12 13:25:00,70.8,59.3,29.92,ESE,120,2.0,0.0,67,0.00,,,0.00,WeatherTracker,2013-09-12 20:25:00,
2013-09-12 13:30:00,71.3,60.2,29.92,ESE,120,2.0,0.0,68,0.00,,,0.00,WeatherTracker,2013-09-12 20:30:00,
2013-09-12 13:35:00,71.8,59.4,29.92,ESE,115,4.0,0.0,65,0.00,,,0.00,WeatherTracker,2013-09-12 20:35:00,
2013-09-12 13:40:00,71.9,59.9,29.91,ESE,115,4.0,0.0,66,0.00,,,0.00,WeatherTracker,2013-09-12 20:40:00,
2013-09-12 13:45:00,71.5,58.7,29.91,ESE,115,3.0,0.0,64,0.00,,,0.00,WeatherTracker,2013-09-12 20:45:00,
2013-09-12 13:50:00,70.9,58.5,29.91,SE,125,2.0,0.0,65,0.00,,,0.00,WeatherTracker,2013-09-12 20:50:00,
2013-09-12 13:55:00,70.7,59.2,29.91,ESE,115,2.0,0.0,67,0.00,,,0.00,WeatherTracker,2013-09-12 20:55:00,
2013-09-12 14:05:00,71.5,60.0,29.91,SE,132,3.0,0.0,67,0.00,,,0.00,WeatherTracker,2013-09-12 21:05:00,
2013-09-12 14:10:00,72.3,60.7,29.91,SE,137,2.0,0.0,67,0.00,,,0.00,WeatherTracker,2013-09-12 21:10:00,
2013-09-12 14:15:00,73.2,61.1,29.91,NW,316,2.0,0.0,66,0.00,,,0.00,WeatherTracker,2013-09-12 21:15:00,
2013-09-12 14:20:00,74.2,61.2,29.90,SSW,197,3.0,0.0,64,0.00,,,0.00,WeatherTracker,2013-09-12 21:20:00,
2013-09-12 14:25:00,74.8,60.4,29.90,WSW,241,2.0,0.0,61,0.00,,,0.00,WeatherTracker,2013-09-12 21:25:00,
2013-09-12 14:30:00,75.3,61.4,29.90,South,174,3.0,0.0,62,0.00,,,0.00,WeatherTracker,2013-09-12 21:30:00,
2013-09-12 14:35:00,75.8,61.4,29.90,South,187,0.0,0.0,61,0.00,,,0.00,WeatherTracker,2013-09-12 21:35:00,
2013-09-12 14:40:00,76.0,60.6,29.90,SSW,211,3.0,0.0,59,0.00,,,0.00,WeatherTracker,2013-09-12 21:40:00,
2013-09-12 14:45:00,75.9,60.5,29.90,SSW,206,6.0,0.0,59,0.00,,,0.00,WeatherTracker,2013-09-12 21:45:00,
2013-09-12 14:50:00,75.7,60.8,29.89,SSW,208,5.0,0.0,60,0.00,,,0.00,WeatherTracker,2013-09-12 21:50:00,
2013-09-12 15:00:00,75.9,61.0,29.89,SSE,148,2.0,0.0,60,0.00,,,0.00,WeatherTracker,2013-09-12 22:00:00,
2013-09-12 15:05:00,75.6,61.2,29.89,SSW,194,1.0,0.0,61,0.00,,,0.00,WeatherTracker,2013-09-12 22:05:00,
2013-09-12 15:10:00,75.2,60.8,29.89,SSW,204,2.0,0.0,61,0.00,,,0.00,WeatherTracker,2013-09-12 22:10:00,
2013-09-12 15:15:00,74.9,60.5,29.89,SW,232,3.0,0.0,61,0.00,,,0.00,WeatherTracker,2013-09-12 22:15:00,
2013-09-12 15:20:00,74.6,60.2,29.89,SSW,210,3.0,0.0,61,0.00,,,0.00,WeatherTracker,2013-09-12 22:20:00,
2013-09-12 15:25:00,74.3,60.9,29.88,SW,221,5.0,0.0,63,0.00,,,0.00,WeatherTracker,2013-09-12 22:25:00,
2013-09-12 15:30:00,74.6,61.2,29.88,SW,219,3.0,0.0,63,0.00,,,0.00,WeatherTracker,2013-09-12 22:30:00,
2013-09-12 15:35:00,75.0,61.1,29.88,WSW,248,4.0,0.0,62,0.00,,,0.00,WeatherTracker,2013-09-12 22:35:00,
2013-09-12 15:40:00,75.2,61.3,29.88,SSW,202,3.0,0.0,62,0.00,,,0.00,WeatherTracker,2013-09-12 22:40:00,
2013-09-12 15:45:00,75.2,60.8,29.88,SSW,205,1.0,0.0,61,0.00,,,0.00,WeatherTracker,2013-09-12 22:45:00,
2013-09-12 15:50:00,74.8,61.3,29.88,SSW,198,3.0,0.0,63,0.00,,,0.00,WeatherTracker,2013-09-12 22:50:00,
2013-09-12 16:00:00,73.7,60.7,29.88,SW,218,5.0,0.0,64,0.00,,,0.00,WeatherTracker,2013-09-12 23:00:00,
2013-09-12 16:05:00,73.2,59.8,29.87,South,189,1.0,0.0,63,0.00,,,0.00,WeatherTracker,2013-09-12 23:05:00,
2013-09-12 16:10:00,72.9,60.4,29.87,SSW,210,2.0,0.0,65,0.00,,,0.00,WeatherTracker,2013-09-12 23:10:00,
2013-09-12 16:15:00,72.8,60.8,29.87,SSW,200,5.0,0.0,66,0.00,,,0.00,WeatherTracker,2013-09-12 23:15:00,
2013-09-12 16:20:00,72.6,60.1,29.87,SW,216,5.0,0.0,65,0.00,,,0.00,WeatherTracker,2013-09-12 23:20:00,
2013-09-12 16:25:00,72.4,60.4,29.87,SW,235,3.0,0.0,66,0.00,,,0.00,WeatherTracker,2013-09-12 23:25:00,
2013-09-12 16:30:00,72.3,60.3,29.87,SW,220,1.0,0.0,66,0.00,,,0.00,WeatherTracker,2013-09-12 23:30:00,
2013-09-12 16:35:00,72.3,60.7,29.87,SSW,212,5.0,0.0,67,0.00,,,0.00,WeatherTracker,2013-09-12 23:35:00,
2013-09-12 16:40:00,72.4,60.8,29.87,WSW,248,4.0,0.0,67,0.00,,,0.00,WeatherTracker,2013-09-12 23:40:00,
2013-09-12 16:45:00,72.5,60.9,29.87,WSW,241,3.0,0.0,67,0.00,,,0.00,WeatherTracker,2013-09-12 23:45:00,
2013-09-12 16:50:00,72.7,60.7,29.86,SSW,208,2.0,0.0,66,0.00,,,0.00,WeatherTracker,2013-09-12 23:50:00,
2013-09-12 16:55:00,72.4,60.4,29.86,WSW,243,7.0,0.0,66,0.00,,,0.00,WeatherTracker,2013-09-12 23:55:00,
2013-09-12 17:00:00,72.1,60.5,29.86,WSW,243,1.0,0.0,67,0.00,,,0.00,WeatherTracker,2013-09-13 00:00:00,
2013-09-12 17:05:00,71.7,60.1,29.86,WNW,290,4.0,0.0,67,0.00,,,0.00,WeatherTracker,2013-09-13 00:05:00,
2013-09-12 17:10:00,71.4,59.9,29.86,West,269,5.0,0.0,67,0.00,,,0.00,WeatherTracker,2013-09-13 00:10:00,
2013-09-12 17:15:00,70.9,59.8,29.86,SW,217,3.0,0.0,68,0.00,,,0.00,WeatherTracker,2013-09-13 00:15:00,
2013-09-12 17:20:00,70.4,59.7,29.86,SW,225,3.0,0.0,69,0.00,,,0.00,WeatherTracker,2013-09-13 00:20:00,
2013-09-12 17:25:00,70.1,59.8,29.86,SW,229,5.0,0.0,70,0.00,,,0.00,WeatherTracker,2013-09-13 00:25:00,
2013-09-12 17:30:00,69.8,60.0,29.86,SW,232,1.0,0.0,71,0.00,,,0.00,WeatherTracker,2013-09-13 00:30:00,
2013-09-12 17:35:00,69.5,59.7,29.86,WSW,253,2.0,0.0,71,0.00,,,0.00,WeatherTracker,2013-09-13 00:35:00,
2013-09-12 17:40:00,69.2,59.4,29.85,SW,218,3.0,0.0,71,0.00,,,0.00,WeatherTracker,2013-09-13 00:40:00,
2013-09-12 17:45:00,68.9,59.5,29.85,WSW,250,3.0,0.0,72,0.00,,,0.00,WeatherTracker,2013-09-13 00:45:00,
2013-09-12 17:55:00,68.5,59.5,29.85,SW,222,4.0,0.0,73,0.00,,,0.00,WeatherTracker,2013-09-13 00:55:00,
2013-09-12 18:00:00,68.3,59.7,29.85,SW,216,1.0,0.0,74,0.00,,,0.00,WeatherTracker,2013-09-13 01:00:00,
2013-09-12 18:05:00,68.3,59.7,29.85,SW,235,4.0,0.0,74,0.00,,,0.00,WeatherTracker,2013-09-13 01:05:00,
2013-09-12 18:10:00,68.4,59.8,29.85,WSW,246,3.0,0.0,74,0.00,,,0.00,WeatherTracker,2013-09-13 01:10:00,
2013-09-12 18:15:00,68.4,59.8,29.85,SW,225,1.0,0.0,74,0.00,,,0.00,WeatherTracker,2013-09-13 01:15:00,
2013-09-12 18:20:00,68.5,59.9,29.85,SW,229,3.0,0.0,74,0.00,,,0.00,WeatherTracker,2013-09-13 01:20:00,
2013-09-12 18:25:00,68.5,60.3,29.85,WSW,255,1.0,0.0,75,0.00,,,0.00,WeatherTracker,2013-09-13 01:25:00,
2013-09-12 18:30:00,68.6,60.4,29.84,SW,225,7.0,0.0,75,0.00,,,0.00,WeatherTracker,2013-09-13 01:30:00,
2013-09-12 18:35:00,68.6,60.4,29.84,WSW,256,5.0,0.0,75,0.00,,,0.00,WeatherTracker,2013-09-13 01:35:00,
2013-09-12 18:40:00,68.6,60.4,29.84,West,269,2.0,0.0,75,0.00,,,0.00,WeatherTracker,2013-09-13 01:40:00,
2013-09-12 18:45:00,68.5,60.3,29.84,WSW,237,1.0,0.0,75,0.00,,,0.00,WeatherTracker,2013-09-13 01:45:00,
2013-09-12 18:50:00,68.5,60.3,29.84,West,264,2.0,0.0,75,0.00,,,0.00,WeatherTracker,2013-09-13 01:50:00,
2013-09-12 18:55:00,68.5,60.3,29.84,WSW,238,5.0,0.0,75,0.00,,,0.00,WeatherTracker,2013-09-13 01:55:00,
2013-09-12 19:00:00,68.4,60.5,29.84,WSW,239,1.0,0.0,76,0.00,,,0.00,WeatherTracker,2013-09-13 02:00:00,
2013-09-12 19:05:00,68.3,60.1,29.84,WSW,258,3.0,0.0,75,0.00,,,0.00,WeatherTracker,2013-09-13 02:05:00,
2013-09-12 19:10:00,68.3,60.4,29.84,West,262,3.0,0.0,76,0.00,,,0.00,WeatherTracker,2013-09-13 02:10:00,
2013-09-12 19:15:00,68.1,60.2,29.84,West,275,2.0,0.0,76,0.00,,,0.00,WeatherTracker,2013-09-13 02:15:00,
2013-09-12 19:20:00,68.1,60.2,29.84,WSW,248,0.0,0.0,76,0.00,,,0.00,WeatherTracker,2013-09-13 02:20:00,
2013-09-12 19:25:00,67.9,60.0,29.84,West,281,0.0,0.0,76,0.00,,,0.00,WeatherTracker,2013-09-13 02:25:00,
2013-09-12 19:30:00,67.8,60.0,29.84,WSW,243,2.0,0.0,76,0.00,,,0.00,WeatherTracker,2013-09-13 02:30:00,
2013-09-12 19:35:00,67.7,59.9,29.84,SW,225,3.0,0.0,76,0.00,,,0.00,WeatherTracker,2013-09-13 02:35:00,
2013-09-12 19:40:00,67.6,60.1,29.84,NW,315,3.0,0.0,77,0.00,,,0.00,WeatherTracker,2013-09-13 02:40:00,
2013-09-12 19:45:00,67.4,59.9,29.84,NW,309,1.0,0.0,77,0.00,,,0.00,WeatherTracker,2013-09-13 02:45:00,
2013-09-12 19:50:00,67.3,59.8,29.84,WNW,298,1.0,0.0,77,0.00,,,0.00,WeatherTracker,2013-09-13 02:50:00,
2013-09-12 19:55:00,67.2,59.7,29.85,SW,226,0.0,0.0,77,0.00,,,0.00,WeatherTracker,2013-09-13 02:55:00,
2013-09-12 20:00:00,67.0,59.5,29.85,WSW,257,3.0,0.0,77,0.00,,,0.00,WeatherTracker,2013-09-13 03:00:00,
2013-09-12 20:05:00,66.8,59.4,29.84,SW,223,1.0,0.0,77,0.00,,,0.00,WeatherTracker,2013-09-13 03:05:00,
2013-09-12 20:10:00,66.7,59.3,29.85,SW,221,0.0,0.0,77,0.00,,,0.00,WeatherTracker,2013-09-13 03:10:00,
2013-09-12 20:15:00,66.6,59.2,29.85,SW,221,1.0,0.0,77,0.00,,,0.00,WeatherTracker,2013-09-13 03:15:00,
2013-09-12 20:20:00,66.4,59.0,29.85,SW,227,0.0,0.0,77,0.00,,,0.00,WeatherTracker,2013-09-13 03:20:00,
2013-09-12 20:25:00,66.2,58.8,29.85,SW,228,0.0,0.0,77,0.00,,,0.00,WeatherTracker,2013-09-13 03:25:00,
2013-09-12 20:30:00,66.0,58.6,29.85,WSW,252,0.0,0.0,77,0.00,,,0.00,WeatherTracker,2013-09-13 03:30:00,
2013-09-12 20:35:00,65.8,58.4,29.85,West,263,1.0,0.0,77,0.00,,,0.00,WeatherTracker,2013-09-13 03:35:00,
2013-09-12 20:40:00,65.7,58.6,29.85,West,281,3.0,0.0,78,0.00,,,0.00,WeatherTracker,2013-09-13 03:40:00,
2013-09-12 20:45:00,65.6,58.5,29.85,SW,227,2.0,0.0,78,0.00,,,0.00,WeatherTracker,2013-09-13 03:45:00,
2013-09-12 20:50:00,65.4,58.4,29.85,WNW,300,0.0,0.0,78,0.00,,,0.00,WeatherTracker,2013-09-13 03:50:00,
2013-09-12 21:00:00,65.1,58.1,29.85,WSW,238,1.0,0.0,78,0.00,,,0.00,WeatherTracker,2013-09-13 04:00:00,
2013-09-12 21:05:00,64.9,57.9,29.85,WNW,295,1.0,0.0,78,0.00,,,0.00,WeatherTracker,2013-09-13 04:05:00,
2013-09-12 21:10:00,64.7,57.7,29.85,West,281,2.0,0.0,78,0.00,,,0.00,WeatherTracker,2013-09-13 04:10:00,
2013-09-12 21:20:00,64.4,57.7,29.85,West,279,1.0,0.0,79,0.00,,,0.00,WeatherTracker,2013-09-13 04:20:00,
2013-09-12 21:25:00,64.3,57.6,29.85,West,279,0.0,0.0,79,0.00,,,0.00,WeatherTracker,2013-09-13 04:25:00,
2013-09-12 21:30:00,64.1,57.8,29.85,West,279,0.0,0.0,80,0.00,,,0.00,WeatherTracker,2013-09-13 04:30:00,
2013-09-12 21:35:00,63.9,57.6,29.85,WSW,252,1.0,0.0,80,0.00,,,0.00,WeatherTracker,2013-09-13 04:35:00,
2013-09-12 21:40:00,63.6,57.3,29.85,SW,221,0.0,0.0,80,0.00,,,0.00,WeatherTracker,2013-09-13 04:40:00,
2013-09-12 21:45:00,63.5,57.2,29.85,SW,221,0.0,0.0,80,0.00,,,0.00,WeatherTracker,2013-09-13 04:45:00,
2013-09-12 21:50:00,63.3,57.4,29.85,SW,221,0.0,0.0,81,0.00,,,0.00,WeatherTracker,2013-09-13 04:50:00,
2013-09-12 21:55:00,63.1,57.2,29.85,SW,221,0.0,0.0,81,0.00,,,0.00,WeatherTracker,2013-09-13 04:55:00,
2013-09-12 22:00:00,62.9,57.0,29.85,SW,221,0.0,0.0,81,0.00,,,0.00,WeatherTracker,2013-09-13 05:00:00,
2013-09-12 22:05:00,62.7,57.1,29.86,SW,221,1.0,0.0,82,0.00,,,0.00,WeatherTracker,2013-09-13 05:05:00,
2013-09-12 22:15:00,62.3,56.7,29.86,SW,221,1.0,0.0,82,0.00,,,0.00,WeatherTracker,2013-09-13 05:15:00,
2013-09-12 22:20:00,62.2,57.0,29.86,SW,221,0.0,0.0,83,0.00,,,0.00,WeatherTracker,2013-09-13 05:20:00,
2013-09-12 22:25:00,62.0,56.8,29.86,SW,221,2.0,0.0,83,0.00,,,0.00,WeatherTracker,2013-09-13 05:25:00,
2013-09-12 22:30:00,61.8,56.6,29.86,SW,221,1.0,0.0,83,0.00,,,0.00,WeatherTracker,2013-09-13 05:30:00,
2013-09-12 22:35:00,61.6,56.7,29.86,SW,221,0.0,0.0,84,0.00,,,0.00,WeatherTracker,2013-09-13 05:35:00,
2013-09-12 22:40:00,61.5,56.6,29.86,SW,221,1.0,0.0,84,0.00,,,0.00,WeatherTracker,2013-09-13 05:40:00,
2013-09-12 22:50:00,61.1,56.2,29.86,SW,221,0.0,0.0,84,0.00,,,0.00,WeatherTracker,2013-09-13 05:50:00,
2013-09-12 22:55:00,60.9,56.4,29.86,SW,221,1.0,0.0,85,0.00,,,0.00,WeatherTracker,2013-09-13 05:55:00,
2013-09-12 23:00:00,60.7,56.2,29.87,SW,221,2.0,0.0,85,0.00,,,0.00,WeatherTracker,2013-09-13 06:00:00,
2013-09-12 23:05:00,60.6,56.4,29.86,SW,221,1.0,0.0,86,0.00,,,0.00,WeatherTracker,2013-09-13 06:05:00,
2013-09-12 23:10:00,60.4,56.2,29.87,SW,221,0.0,0.0,86,0.00,,,0.00,WeatherTracker,2013-09-13 06:10:00,
2013-09-12 23:15:00,60.3,56.1,29.87,SW,221,2.0,0.0,86,0.00,,,0.00,WeatherTracker,2013-09-13 06:15:00,
2013-09-12 23:20:00,60.2,56.0,29.87,SW,216,0.0,0.0,86,0.00,,,0.00,WeatherTracker,2013-09-13 06:20:00,
2013-09-12 23:25:00,60.1,56.2,29.87,WSW,242,2.0,0.0,87,0.00,,,0.00,WeatherTracker,2013-09-13 06:25:00,
2013-09-12 23:30:00,60.0,56.4,29.87,WSW,242,1.0,0.0,88,0.00,,,0.00,WeatherTracker,2013-09-13 06:30:00,
2013-09-12 23:35:00,60.0,56.4,29.87,WSW,242,0.0,0.0,88,0.00,,,0.00,WeatherTracker,2013-09-13 06:35:00,
2013-09-12 23:45:00,59.9,56.3,29.87,WSW,250,0.0,0.0,88,0.00,,,0.00,WeatherTracker,2013-09-13 06:45:00,
2013-09-12 23:50:00,59.9,56.3,29.87,WSW,250,2.0,0.0,88,0.00,,,0.00,WeatherTracker,2013-09-13 06:50:00,
2013-09-12 23:55:00,59.8,56.2,29.87,WSW,250,0.0,0.0,88,0.00,,,0.00,WeatherTracker,2013-09-13 06:55:00,